sat.trackr.live / text

‹ back to catalog

STARLINK-3833

NORAD 52578 · 2022-051AU

PAYLOAD ACTIVE UNKNOWN

§ Identity

Operator
Country
US
Launch date
2022-05-13
Launch site
AFWTR
Launch vehicle
Mass (kg)
RCS (m²)

Purposes: comms

External: N2YO · Heavens-Above · Gunter

§ Orbital elements

Epoch: 2026-09-20T04:45:16.085376Z

Period
93.85 min
Inclination
53.1619°
Eccentricity
0.0001332
Mean motion
15.34391488 rev/d
Perigee alt
461.8 km
Apogee alt
463.6 km
Semi-major
6,840.9 km
B*
1.0975e-5
RAAN
325.3762°
Arg perigee
87.1840°
Mean anomaly
272.9315°
Rev number
24,095

§ Raw data

STARLINK-38331 52578U 22051AU  26263.19810284 -.00000006  00000+0  10975-4 0  99912 52578  53.1619 325.3762 0001332  87.1840 272.9315 15.34391488240954

JSON: /api/v1/satellites/52578 · /tle

For live sub-satellite position, see the globe view (requires WebGL).

§ Visibility from observer

Set your observer location to see the next 7 days of passes ≥ 10°. The values pass through the URL so the page stays shareable.

No JS? Fill the form by hand. The geolocation button needs JavaScript.